Vertical_Velocity
-0 -2 -0 2 -1 0 -1 -3 -0 -1 -5 -2 -1 2 -1 -4 4 7 6 1 -5 -3 -7 -7 -3 0 -2 1 -0 -1 -1 2 -7 7 -5 -1 -1 -2 -0 2 2 1 5
-1 -2 -4 0 -0 -1 -4 1 -7 2 -4 -1 -2 -2 1 6 1 -2 1 3 3 2 -0 -1 -1 -2 -4 0 -0 -0 1 3 -4 -2 2 -1 -3 -1 -4 -5 -0 2 3
4 6 -3 -4 -3 -0 0 -3 -2 2 3 0 2 2 4 2 5 4 1 -0 1 1 1 -2 -2 -2 -2 -2 -2 -1 -1 -0 0 -0 -3 4 -4 -6 -2 -2 -0 -2 -3
-2 -1 -0 -4 -2 -3 -2 0 -3 -4 3 3 4 7 5 4 2 -0 0 -3 1 2 2 0 -2 -2 -1 -0 0 1 1 1 2 1 -8 2 -1 -1 -7 -2 -4 -6 -5
-0 2 0 -1 -4 -7 -4 -1 -4 -2 3 1 0 2 -1 -0 -5 2 3 1 -3 -1 1 -0 -2 -3 1 1 -3 1 -0 -1 3 3 -5 -5 1 0 -5 -2 -5 -4 1
-4 -3 -2 -2 0 -4 -2 -3 -2 1 1 -0 1 -1 -2 0 -5 -3 -1 3 2 0 -0 -0 -0 -2 -1 -1 0 0 -0 -2 2 1 -1 -6 5 2 -0 -3 0 -1 -5
-4 -2 -2 -6 -2 -1 -2 -3 -1 1 -0 -0 -1 -2 -1 3 -6 -1 -1 1 -0 2 1 0 -3 -1 -1 -1 -3 -2 0 1 -2 1 -1 -2 -1 2 -1 -2 -1 -3 1
-1 -0 -1 -0 2 -1 -3 -1 -2 -1 -1 -2 -4 -3 -3 1 -4 0 -1 -0 -1 -0 1 2 -0 -3 -0 -2 -2 -1 -0 -0 2 2 1 -1 -1 1 -2 -0 1 -1 -2
-1 1 1 2 2 -3 -2 1 -0 -2 -1 -3 -1 -1 -3 3 -3 -1 -2 -0 0 -0 -0 1 -1 -3 0 0 -2 -1 0 1 2 -0 2 -2 -0 0 1 -1 -3 2 -0
0 0 1 2 0 -1 -0 0 -1 -3 -2 -1 0 -1 -3 -1 -5 -3 -2 -1 -2 -2 2 1 0 -1 1 1 -1 -0 -3 3 -0 2 1 1 0 -1 1 -3 2 -2 2
-0 -1 1 1 -1 -0 -1 -1 -3 0 1 1 -2 -2 -1 -1 0 -1 -0 -1 -2 -0 0 2 3 -1 1 1 0 1 -1 1 3 -0 1 1 1 1 2 3 3 2 0
2 2 2 2 -0 -2 -2 -2 -2 -3 -1 0 -3 1 0 -1 -1 1 -0 0 -0 -2 1 2 1 2 2 2 1 1 1 0 0 0 0 1 1 1 2 2 2 1 0
1 0 0 -0 -2 -2 -3 -2 -3 -1 -2 -1 -0 -2 0 -1 -0 0 1 1 1 0 0 1 2 2 2 1 1 2 2 1 1 0 1 2 2 2 2 1 1 -0 0
1 0 1 0 -0 -0 0 -1 -2 -2 1 -1 -2 -0 0 -0 -0 0 1 2 3 2 2 2 3 3 2 3 2 1 1 0 0 1 1 1 1 2 2 2 2 1 -0
1 -0 2 1 -1 -0 -1 -2 3 -3 1 -1 -0 -1 -1 0 0 -1 -2 0 1 1 2 2 2 1 3 3 2 1 1 1 2 1 -0 0 1 1 1 1 1 1 2
-1 1 -1 1 -0 0 -1 1 -9 2 -3 -0 -2 -1 2 -0 -0 0 1 1 2 2 2 2 1 2 2 0 2 1 1 1 1 0 -0 1 1 -1 -1 1 0 0 1
0 0 0 -1 -0 0 -1 -0 1 -4 -9 4 0 -1 -0 0 -0 -0 0 1 2 1 1 1 1 1 3 3 3 3 2 2 1 0 1 1 1 -2 -1 -2 1 2 1
-1 -0 0 0 -1 -1 -1 -0 -1 -1 0 1 -2 1 -1 -0 -0 0 0 -1 -1 1 1 2 1 2 1 2 2 2 2 0 2 2 1 0 -0 -0 -1 -1 -1 1 2
-0 2 0 -1 -1 -0 -0 -1 -1 -0 -1 -1 -0 -1 -1 -1 -1 0 -0 -0 1 1 1 1 1 -1 0 2 2 1 2 1 2 2 0 0 -0 -0 -0 -1 0 -0 -0
-0 1 -0 -1 -1 0 -1 -1 -1 -0 -1 -2 -0 -0 -0 -1 -1 -0 0 -0 0 0 0 1 1 -1 0 0 1 0 -1 -1 1 0 -0 -0 -0 -0 -0 -1 -1 -0 -1
-0 -0 -0 -0 -2 -2 -1 -1 -1 -1 -1 -1 -1 -1 -1 -1 -1 -0 -0 -0 0 0 -0 -1 -1 0 0 -0 -0 0 1 -0 -1 -1 -1 0 0 -1 -0 -0 -1 -0 -0
-1 0 -0 -0 -2 -1 -1 -1 -2 -2 -1 -0 -1 -2 -1 -2 -2 -1 -0 -0 0 1 1 -0 -0 0 -0 -0 0 0 -0 0 -0 -0 0 -0 0 -0 -1 -1 1 0 -0
0 1 -0 -1 -1 -0 -1 -2 -1 -2 -1 -1 -1 -1 -2 -2 -1 -2 -1 -1 -1 0 1 1 0 1 1 1 0 0 0 -0 -1 1 -0 -0 -0 -0 0 0 -0 0 -0
1 1 0 0 0 -0 -1 -1 -1 -1 -1 -1 -1 -0 -1 -1 -2 -2 -1 -0 -0 -1 0 1 0 0 0 1 1 -0 -1 -1 -1 -1 0 -1 0 0 -1 -1 -1 -1 -1
0 0 -1 -0 0 -1 -1 -1 -1 -1 -1 -1 -1 -0 0 -1 -1 -2 -2 -1 -1 -1 -1 0 0 0 0 1 1 1 -0 -0 0 -0 -1 -2 0 1 -0 -1 -1 -1 -1
-0 -0 0 -0 -1 -0 -0 0 -1 -1 -1 -1 -1 -0 -0 0 -0 -1 -1 -2 -2 -1 -0 0 1 1 0 -1 -1 -0 -0 -0 -0 -1 -0 -1 -0 -1 -0 -0 0 -1 -1
Height
3080 3073 3067 3061 3054 3047 3039 3031 3023 3015 3009 3004 2999 2995 2990 2986 2983 2978 2974 2971 2967 2964 2961 2959 2956 2954 2952 2951 2949 2947 2947 2947 2945 2945 2947 2948 2949 2950 2951 2951 2951 2951 2951
3068 3062 3056 3050 3042 3034 3027 3019 3011 3005 2999 2994 2990 2986 2981 2977 2973 2968 2965 2962 2960 2957 2953 2951 2949 2946 2944 2942 2940 2939 2937 2936 2935 2934 2936 2937 2937 2937 2937 2938 2940 2940 2940
3059 3053 3046 3039 3032 3024 3016 3008 3002 2996 2989 2984 2980 2976 2972 2968 2964 2960 2956 2952 2949 2946 2943 2941 2939 2936 2934 2933 2931 2929 2927 2926 2925 2923 2924 2925 2925 2926 2927 2926 2926 2927 2928
3052 3045 3036 3028 3020 3013 3006 2998 2992 2988 2982 2977 2972 2968 2963 2959 2954 2950 2946 2942 2939 2935 2932 2930 2927 2925 2923 2922 2920 2918 2917 2915 2915 2914 2913 2913 2914 2915 2914 2913 2913 2914 2914
3041 3033 3025 3018 3010 3003 2997 2991 2984 2979 2973 2968 2963 2958 2953 2949 2944 2941 2938 2933 2928 2925 2921 2919 2916 2914 2913 2910 2908 2907 2906 2905 2904 2903 2902 2902 2903 2903 2903 2903 2901 2901 2902
3030 3022 3015 3009 3001 2994 2989 2983 2977 2972 2966 2961 2956 2950 2946 2941 2935 2931 2927 2923 2919 2915 2911 2909 2906 2903 2901 2898 2896 2894 2894 2893 2892 2891 2891 2890 2891 2891 2890 2890 2889 2888 2888
3021 3014 3006 3000 2993 2987 2982 2976 2971 2965 2959 2954 2948 2942 2936 2931 2924 2921 2916 2912 2907 2904 2901 2897 2894 2892 2889 2886 2884 2882 2882 2881 2880 2880 2878 2879 2879 2880 2880 2879 2878 2877 2877
3013 3006 2999 2992 2986 2980 2975 2969 2963 2958 2952 2946 2939 2933 2927 2922 2915 2911 2905 2900 2896 2893 2889 2886 2882 2880 2879 2875 2873 2871 2870 2869 2869 2868 2867 2868 2868 2868 2868 2868 2867 2867 2867
3004 2998 2992 2985 2979 2973 2968 2962 2956 2951 2944 2938 2931 2925 2919 2913 2906 2900 2894 2890 2885 2882 2879 2876 2872 2870 2868 2865 2863 2861 2860 2859 2858 2857 2856 2855 2856 2856 2857 2857 2857 2857 2856
2997 2990 2985 2979 2973 2968 2962 2957 2951 2944 2937 2930 2924 2918 2911 2905 2897 2890 2884 2879 2875 2871 2869 2866 2863 2860 2859 2856 2854 2852 2851 2851 2849 2847 2846 2846 2846 2847 2848 2847 2849 2848 2848
2989 2983 2977 2972 2967 2962 2957 2951 2944 2937 2930 2924 2918 2910 2902 2895 2888 2881 2875 2870 2866 2862 2859 2857 2854 2852 2850 2849 2846 2845 2843 2842 2839 2837 2836 2837 2838 2839 2840 2840 2840 2840 2840
2982 2976 2971 2966 2962 2957 2951 2945 2938 2931 2924 2917 2910 2903 2895 2887 2881 2874 2868 2863 2858 2854 2852 2849 2847 2845 2843 2841 2839 2837 2835 2834 2833 2832 2831 2831 2832 2833 2833 2833 2833 2833 2832
2974 2969 2964 2960 2956 2951 2945 2938 2932 2926 2918 2911 2903 2896 2889 2881 2874 2868 2862 2857 2853 2849 2846 2844 2842 2840 2838 2835 2832 2831 2831 2830 2830 2829 2829 2829 2829 2829 2828 2828 2827 2827 2826
2967 2962 2958 2954 2950 2945 2939 2933 2927 2920 2913 2905 2898 2890 2883 2876 2869 2862 2858 2854 2850 2846 2843 2840 2838 2836 2833 2830 2828 2828 2828 2827 2827 2827 2827 2827 2827 2826 2825 2823 2822 2821 2821
2960 2956 2953 2949 2944 2939 2934 2928 2923 2915 2908 2901 2893 2886 2877 2871 2865 2859 2855 2851 2847 2844 2841 2838 2836 2834 2831 2828 2827 2826 2826 2825 2825 2825 2825 2825 2825 2824 2823 2821 2820 2818 2818
2953 2951 2947 2943 2939 2934 2929 2924 2917 2913 2904 2897 2889 2882 2875 2868 2862 2858 2854 2850 2846 2843 2840 2838 2836 2835 2833 2831 2828 2826 2825 2824 2823 2823 2823 2823 2823 2823 2822 2820 2818 2817 2815
2948 2945 2942 2938 2934 2929 2925 2920 2915 2909 2901 2894 2887 2879 2872 2866 2861 2857 2853 2850 2846 2843 2840 2838 2837 2835 2833 2831 2829 2826 2825 2823 2822 2821 2821 2821 2822 2822 2821 2820 2818 2817 2816
2943 2940 2937 2934 2930 2925 2921 2917 2912 2906 2899 2892 2884 2878 2870 2864 2860 2856 2853 2850 2847 2844 2842 2840 2838 2836 2834 2833 2830 2828 2826 2825 2823 2820 2819 2819 2820 2820 2820 2819 2818 2817 2816
2939 2936 2933 2930 2926 2922 2918 2914 2909 2903 2896 2890 2883 2876 2870 2863 2859 2856 2853 2850 2848 2846 2843 2841 2839 2837 2836 2834 2831 2829 2828 2826 2824 2821 2819 2818 2818 2818 2818 2818 2817 2816 2815
2935 2933 2930 2927 2923 2919 2915 2911 2906 2901 2895 2889 2882 2876 2870 2864 2859 2856 2853 2850 2848 2846 2844 2842 2840 2839 2837 2835 2833 2831 2829 2827 2825 2823 2821 2818 2817 2817 2817 2816 2816 2815 2814
2932 2929 2927 2923 2920 2916 2912 2908 2904 2899 2893 2887 2882 2876 2870 2864 2859 2855 2853 2850 2848 2846 2844 2842 2841 2840 2838 2836 2834 2832 2830 2828 2826 2825 2822 2820 2818 2816 2815 2814 2814 2813 2812
2928 2926 2923 2920 2917 2913 2909 2906 2901 2897 2892 2886 2881 2876 2871 2865 2860 2855 2852 2850 2847 2846 2844 2842 2841 2839 2838 2836 2834 2832 2830 2828 2827 2825 2823 2821 2820 2818 2816 2814 2813 2811 2810
2924 2922 2919 2916 2913 2910 2907 2903 2899 2895 2890 2885 2881 2876 2871 2866 2861 2856 2853 2850 2847 2845 2843 2842 2841 2839 2838 2836 2834 2832 2830 2829 2827 2825 2823 2822 2820 2818 2816 2815 2813 2811 2809
2920 2918 2916 2913 2910 2907 2904 2900 2897 2893 2888 2884 2879 2875 2871 2866 2862 2858 2853 2850 2847 2844 2843 2841 2840 2838 2837 2836 2834 2832 2831 2829 2827 2826 2823 2821 2819 2818 2816 2815 2813 2811 2809
2917 2914 2912 2909 2907 2904 2900 2897 2894 2890 2886 2882 2877 2873 2869 2866 2862 2858 2854 2851 2847 2845 2842 2840 2839 2837 2836 2835 2833 2832 2830 2828 2827 2825 2823 2821 2819 2817 2815 2813 2812 2810 2808
2913 2911 2908 2906 2903 2900 2897 2894 2890 2887 2883 2879 2875 2871 2867 2864 2860 2857 2854 2850 2847 2845 2842 2840 2838 2837 2835 2834 2832 2830 2829 2827 2825 2823 2822 2820 2818 2816 2814 2812 2810 2808 2806